Погода Добеле

Погода Добеле : погода сейчас, прогноз погоды и архив. Всё, что Вы хотите узнать о погоде Добеле!

Поиск расширенной информации на нашем сайте:

Другие новости

Новости СМИ2

Главная страница сайта

Новости сайта

02.10.2013

Напоминаем, что на нашем новом сайте вы можете получить высокодетализированные прогнозы погоды по пунктам России, СНГ и мира (включающие важные для авиации метеовеличины, такие как направление и скорость ветра, видимость, явления погоды, количество и форма облачности, нижняя и верхняя граница облачности), а также ознакомиться с разнообразными материалами по авиационной метеорологии и подборкой полезных ссылок на эту тему.

Сайт Метеоцентр.Азия посвящён разработке технологий оптимизации авиаметеорологического обслуживания, включая проектирование и перспективное создание нескольких автоматизированных авиаметеорологических систем:
- система выпуска высокодетальных прогностических карт явлений погоды для нижнего воздушного пространства по России и ближнему зарубежью;
- система верификации прогнозов TAF (выпускаемых синоптиками официальных АМСГ РФ и ближнего зарубежья) и AUTOTAF (выпускаемых сайтом Метеоцентр.Азия) - выявление ошибок, онлайн-сопоставление с фактической погодой METAR, автоматическое внесение коррективов в прогнозы при резком отклонении фактической погоды от прогноза, подсчёт оправдываемости прогнозов по элементам и в целом;
- система обработки, анализа и отображения авиаметеорологической информации для применения провайдерами метеорологической информации.


Погода Добеле - сегодня

Время (UTC), дата Ветер
(°,м/с) 
Видим.   Явления Облачность Т
(°С)
Тd
(°С)
f(%) Тe
(°С)
Pmin
(гПа)
dP
(гПа)
Po
(мм)
O2
(г/м3)
Тmin Tmax R s Состояние
почвы
15 18.01.17 220 (ЮЗ) 10 км  {ливн. осадки}  10/8 600 м средняя 
[Sc|Ac und]
+0.4 -0.2 96 -2  1032.8  -0.3  770  309           
21 18.01.17 220 (ЮЗ) 4000 м  дымка{морось}  10/10 240 м 
[St]
+0.8 +0.6 99 -2  1029.9  -1.5  768  308           
00 19.01.17 240 (ЮЗ) 5{10}  н/о    н/о 
+1.8 +1.5 98 -1  1028.2  -1.7  767  307           
03 19.01.17 230 (ЮЗ) 4{11}  4000 м  слаб. дождь{морось}  10/10 270 м 
[Ns]
+1.9 +1.6 98 1027.2  -1  766  306           
06 19.01.17 220 (ЮЗ) 3{11}  10 км  слаб. морось{дождь}  10/10 300 м 
[St]
+1.3 +1.2 99 1026.1  -1.1  765  306  +0.5    0.4  10  равномерный
мокрый или
старый снег
100% 
09 19.01.17 240 (ЮЗ) 20000 м  {морось}  10/10 500 м 
[Sc]
+2.9 +2.1 94 +2  1025.8  -0.2  765  304           
12 19.01.17 230 (ЮЗ) 20000 м  {морось}  10/0 средняя 
[Ac und]
+3.1 +2.5 96 +2  1024.5  -1.3  764  304           
15 19.01.17 250 (З) 10 км  слаб. морось  10/10 330 м 
[St]
+2.9 +2.5 97 +1  1023.7  -0.8  764  303           
18 19.01.17 260 (З) 10 км  {морось}  10/10 500 м 
[Sc]
+2.8 +2.6 99 +1  1023  -0.7  763  303    +3.2  0.0     
21 19.01.17 270 (З) 5{10}  10 км    10/10 500 м 
[Sc]
+3.3 +3.1 99 +1  1022.9  -0.1  763  303           
00 20.01.17 280 (З) 3{10}  10 км    10/3 300 м средняя 
[Sc|Ac und]
+3.3 +2.9 97 +2  1023.3  0.4  763  304           
03 20.01.17 290 (З) 10 км    9/3 300 м средняя 
[Sc|Ac trans]
+2.7 +2.3 97 1024.1  0.8  764  304           
06 20.01.17 270 (З) 1000 м  дымка  10/0 средняя 
[Ac und]
+1.3 +1.2 99 1024.6  0.4  764  305  +1.2      равномерный
мокрый или
старый снег
100% 
09 20.01.17 240 (ЮЗ) 1500 м  дымка{туман}  10/10 300 м 
[St]
+1.4 +1.3 99 1024.4  -0.2  764  305           
12 20.01.17 240 (ЮЗ) 9000 м  дымка{туман}  10/10 300 м 
[St]
+2.6 +2.5 99 +1  1022.1  -2.2  763  304           
15 20.01.17 250 (З) 6{11}  10 км    10/10 300 м 
[St]
+3.6 +3 96 +1  1019.9  -2.2  761  301           
18 20.01.17 280 (З) 6{13}  10 км    10/3 300 м средняя 
[Sc|Ac und]
+2.6 +2.2 97 1019.9  761  303    +3.6       
21 20.01.17 290 (З) 8-10{11}  10 км    3/0 средняя 
[Ac trans]
+3.3 +2.5 94 1020.7  0.8  761  302           
00 21.01.17 290 (З) 5{11}  10 км    3/0 средняя 
[Ac trans]
+2.2 +1.7 96 1021.8  1.1  762  304           
03 21.01.17 290 (З) 10 км    3/0 средняя 
[Ac trans]
+1.6 +1.3 98 -1  1022.6  0.7  763  305           
06 21.01.17 280 (З) 10 км    ясно 
+1.3 +1 98 -1  1023.7  1.1  764  305  +1.3      сухой снег
50-90% 
09 21.01.17 290 (З) 20000 м    8/3 600 м средняя, верхняя 
[Sc|Ac trans|Ci fib]
+1.8 +1.2 96 -1  1026  2.3  765  305           
12 21.01.17 290 (З) 20000 м    6/0 средняя, верхняя 
[Ac trans|Ci fib]
+3.2 +0.9 85 +1  1027.1  1.1  766  305           
15 21.01.17 300 (СЗ) 10 км    9/0 средняя 
[Ac trans]
+2.4 +1.2 92 +1  1028.1  767  305           
18 21.01.17 270 (З) 10 км    8/0 средняя 
[Ac trans]
+2.3 +1.2 92 1028.9  0.8  767  306    +3.5       
Время (UTC), дата Ветер
(°,м/с) 
Видим.   Явления Облачность Т
(°С)
Тd
(°С)
f(%) Тe
(°С)
Pmin
(гПа)
dP
(гПа)
Po
(мм)
O2
(г/м3)
Тmin Tmax R s Состояние
почвы

Для получения пояснительной информации подведите курсор к названию столбца.

ПОГОДА Добеле - архив

Всё, что Вы хотите узнать о погоде Добеле - удобно и подробно!

Выберите нужную дату (начиная с 1 января 2015* года) и нажмите кнопку "Найти".
Будут отображены архивные сводки погоды по пункту Добеле, начиная с указанной даты.


Отображать данные в формате CSV (для использования в таблицах Excel)


Внимание! Наш архив погоды предназначен исключительно для личного некоммерческого использования в познавательных целях. Если Вам необходимы официальные справки о состоянии погоды (для производственных, юридических, коммерческих и т.п. целей), обращайтесь в органы Росгидромета.

*Примечание: данная дата относится к архиву по метеостанциям СССР (Россия, СНГ, Балтия).
Архив по метеостанциям Зарубежной Европы и Азии (кроме Китая) хранится 10 дней, по другим регионам земного шара (Китай, Африка, Америка, Австралия, Океания) - 1 день.

Добеле - район местоположения метеостанции


Название, широта, долгота, высота метеостанции:
Добеле 56.6°ш. 23.3°д. 44 м над ур. моря [Латвия]

Дополнительная информация

В oтличие oт бoльшинства пoгoдных сайтoв мы публикуем пoдрoбную метеoинфoрмацию в детальнoм прoфессиoнальнoм фoрмате.

Характеристики температуры и влажнoсти вoздуха измеряются на высoте 2 м в тени вдали oт зданий и деревьев.
Скoрoсть ветра измеряется на высoте 10 м (на урoвне рoста челoвека скoрoсть ветра ниже в 1.5-2 раза). Если метеoстанция нахoдится в гoрoде или в лесу, тo скoрoсть ветра занижена на 2-4 м/с пo сравнению с oткрытым местoм. Скoрoсть ветра над акватoриями крупных рек и oзёр, а также на вершинах хoлмoв на 2-5 м/с выше, чем в oбычных услoвиях.
Атмoсфернoе давление в разных тoчках местнoсти мoжет значительнo oтличаться oт давления на метеoстанции, в зависимoсти oт услoвий рельефа (при пoдъёме на 10 м давление пoнижается примернo на 1 мм рт.ст.).